Date String (YYYY-MM-DD hh:mm:ss) UTC,Instrument flags,absolute air pressure of the measurement (hPa),sample flow rate (lpm),inlet stack bypass flow (lpm),air temperature of the measurement (°C),ambient temperature measured by the external sensor (°C),aerosol sample conditioner tube jacket temperature (°C),OPC LED temperature (°C),internal box temperature (°C),relative humidity of the measurement (%),span deviation,mass concentration of particles derived from Lorenz-Mie calculation of OPC scattering (μg/m³),mass concentration of particles derived from Lorenz-Mie calculation of OPC scattering (μg/m³),mass concentration of particles derived from Lorenz-Mie calculation of OPC scattering (μg/m³)
DateTimeUTC,F1_M11,P_M11,Q1_M11,Q2_M11,T1_M11,T2_M11,T3_M11,T4_M11,T5_M11,U1_M11,ZSPAN_M11,X0_M11,X2_M11,X1_M11
2023-06-18 01:00:00,SystemResetWarning,0828.7,4.99,000.00,029.9,028.4,000.0,038.3,031.5,18.5,0000.0,0004.38,0001.96,0001.45
2023-06-18 01:01:00,SystemResetWarning,0828.6,4.99,000.00,029.9,027.1,000.0,038.2,031.5,18.3,0000.0,0004.31,0001.89,0001.41
2023-06-18 01:02:00,SystemResetWarning,0828.7,5.01,000.00,029.8,025.3,000.0,038.2,031.3,18.8,0000.0,0004.52,0001.88,0001.37
2023-06-18 01:03:00,SystemResetWarning,0828.7,5.02,000.00,029.8,025.3,000.0,038.1,031.2,18.8,0000.0,0004.65,0001.84,0001.34
2023-06-18 01:04:00,SystemResetWarning,0828.7,5.00,000.00,029.7,025.6,000.0,038.2,030.9,19.3,0000.0,0003.84,0001.77,0001.31
2023-06-18 01:05:00,SystemResetWarning,0828.7,5.00,000.00,029.6,026.0,000.0,038.2,031.0,18.9,0000.0,0003.84,0001.76,0001.27
2023-06-18 01:06:00,SystemResetWarning,0828.7,5.00,000.00,029.6,026.4,000.0,038.2,031.0,18.7,0000.0,0003.80,0001.73,0001.25
2023-06-18 01:07:00,SystemResetWarning,0828.8,5.00,000.00,029.6,026.8,000.0,038.2,031.1,18.9,0000.0,0003.70,0001.70,0001.22
2023-06-18 01:08:00,SystemResetWarning,0828.8,5.00,000.00,029.6,027.1,000.0,038.2,031.1,19.0,0000.0,0003.64,0001.68,0001.21
2023-06-18 01:09:00,SystemResetWarning,0828.8,5.00,000.00,029.6,027.4,000.0,038.2,031.1,19.0,0000.0,0003.58,0001.65,0001.19
2023-06-18 01:10:00,SystemResetWarning,0828.8,5.00,000.00,029.6,027.6,000.0,038.2,031.2,19.0,0000.0,0003.92,0001.66,0001.18
2023-06-18 01:11:00,SystemResetWarning,0828.8,5.01,000.00,029.7,027.8,000.0,038.2,031.3,18.8,0000.0,0003.82,0001.63,0001.18
2023-06-18 01:12:00,SystemResetWarning,0828.7,5.00,000.00,029.7,027.9,000.0,038.2,031.3,18.7,0000.0,0003.84,0001.66,0001.18
2023-06-18 01:13:00,SystemResetWarning,0828.7,5.00,000.00,029.7,028.1,000.0,038.2,031.3,18.4,0000.0,0003.54,0001.64,0001.18
2023-06-18 01:14:00,SystemResetWarning,0828.8,4.99,000.00,029.8,028.2,000.0,038.2,031.3,18.6,0000.0,0003.30,0001.64,0001.19
2023-06-18 01:15:00,SystemResetWarning,0828.7,4.99,000.00,029.8,028.3,000.0,038.2,031.4,19.9,0000.0,0003.29,0001.66,0001.21
2023-06-18 01:16:00,SystemResetWarning,0828.8,4.99,000.00,029.8,028.3,000.0,038.3,031.4,21.5,0000.0,0003.26,0001.67,0001.25
2023-06-18 01:17:00,SystemResetWarning,0828.7,5.00,000.00,029.8,027.1,000.0,038.2,031.4,22.3,0000.0,0003.42,0001.72,0001.30
2023-06-18 01:18:00,SystemResetWarning,0828.8,5.00,000.00,029.8,025.2,000.0,038.2,031.2,22.8,0000.0,0003.54,0001.77,0001.36
2023-06-18 01:19:00,SystemResetWarning,0828.8,5.00,000.00,029.7,025.1,000.0,038.1,031.1,23.1,0000.0,0003.66,0001.84,0001.42
2023-06-18 01:20:00,SystemResetWarning,0828.8,5.01,000.00,029.6,025.4,000.0,038.1,030.9,23.4,0000.0,0003.78,0001.94,0001.49
2023-06-18 01:21:00,SystemResetWarning,0828.8,5.00,000.00,029.6,025.8,000.0,038.1,030.9,23.5,0000.0,0003.50,0002.01,0001.57
2023-06-18 01:22:00,SystemResetWarning,0828.8,5.00,000.00,029.5,026.3,000.0,038.1,030.9,23.9,0000.0,0003.36,0002.06,0001.64
2023-06-18 01:23:00,SystemResetWarning,0828.8,5.00,000.00,029.5,026.7,000.0,038.1,031.0,24.2,0000.0,0003.36,0002.10,0001.72
2023-06-18 01:24:00,SystemResetWarning,0828.9,4.99,000.00,029.5,027.0,000.0,038.1,031.0,24.7,0000.0,0003.44,0002.17,0001.80
2023-06-18 01:25:00,SystemResetWarning,0828.9,5.00,000.00,029.6,027.3,000.0,038.1,031.1,25.0,0000.0,0003.60,0002.27,0001.87
2023-06-18 01:26:00,SystemResetWarning,0828.9,4.99,000.00,029.6,027.6,000.0,038.1,031.2,24.3,0000.0,0003.81,0002.37,0001.92
2023-06-18 01:27:00,SystemResetWarning,0829.0,5.01,000.00,029.6,027.8,000.0,038.1,031.2,24.2,0000.0,0005.35,0002.48,0001.96
2023-06-18 01:28:00,SystemResetWarning,0828.9,5.01,000.00,029.7,027.9,000.0,038.2,031.3,24.6,0000.0,0005.94,0002.54,0002.00
2023-06-18 01:29:00,SystemResetWarning,0829.0,5.00,000.00,029.7,028.1,000.0,038.2,031.3,24.6,0000.0,0005.91,0002.54,0002.01
2023-06-18 01:30:00,SystemResetWarning,0829.0,5.00,000.00,029.7,028.2,000.0,038.2,031.4,24.8,0000.0,0005.82,0002.53,0002.01
2023-06-18 01:31:00,SystemResetWarning,0828.9,4.99,000.00,029.8,028.3,000.0,038.2,031.4,24.6,0000.0,0005.85,0002.53,0002.01
2023-06-18 01:32:00,SystemResetWarning,0828.9,5.00,000.00,029.8,028.4,000.0,038.2,031.5,23.9,0000.0,0005.96,0002.57,0002.02
2023-06-18 01:33:00,SystemResetWarning,0829.0,5.00,000.00,029.8,028.5,000.0,038.2,031.5,23.4,0000.0,0006.39,0002.61,0002.04
2023-06-18 01:34:00,SystemResetWarning,0829.0,5.00,000.00,029.9,028.6,000.0,038.3,031.6,23.4,0000.0,0006.48,0002.65,0002.05
2023-06-18 01:35:00,SystemResetWarning,0829.0,4.99,000.00,029.9,027.6,000.0,038.3,031.6,23.4,0000.0,0006.58,0002.68,0002.05
2023-06-18 01:36:00,SystemResetWarning,0829.0,5.01,000.00,029.9,025.4,000.0,038.2,031.5,24.0,0000.0,0006.67,0002.69,0002.03
2023-06-18 01:37:00,SystemResetWarning,0829.1,5.01,000.00,029.9,025.1,000.0,038.2,031.3,24.1,0000.0,0006.60,0002.68,0002.05
2023-06-18 01:38:00,SystemResetWarning,0829.1,5.01,000.00,029.7,025.4,000.0,038.2,031.0,24.8,0000.0,0005.58,0002.61,0002.06
2023-06-18 01:39:00,SystemResetWarning,0829.1,4.99,000.00,029.7,025.8,000.0,038.2,031.0,24.9,0000.0,0004.54,0002.59,0002.06
2023-06-18 01:40:00,SystemResetWarning,0829.1,5.00,000.00,029.7,026.3,000.0,038.2,031.0,24.9,0000.0,0004.69,0002.61,0002.04
2023-06-18 01:41:00,SystemResetWarning,0829.1,5.01,000.00,029.7,026.7,000.0,038.2,031.1,24.8,0000.0,0004.85,0002.64,0002.05
2023-06-18 01:42:00,SystemResetWarning,0829.1,5.00,000.00,029.7,027.1,000.0,038.2,031.2,24.9,0000.0,0004.96,0002.68,0002.07
2023-06-18 01:43:00,SystemResetWarning,0829.2,4.99,000.00,029.7,027.4,000.0,038.2,031.2,24.7,0000.0,0004.88,0002.64,0002.05
2023-06-18 01:44:00,SystemResetWarning,0829.2,5.00,000.00,029.7,027.6,000.0,038.2,031.3,25.4,0000.0,0004.71,0002.60,0002.05
2023-06-18 01:45:00,SystemResetWarning,0829.2,5.00,000.00,029.7,027.8,000.0,038.2,031.3,25.6,0000.0,0004.93,0002.61,0002.07
2023-06-18 01:46:00,SystemResetWarning,0829.2,5.00,000.00,029.8,028.0,000.0,038.2,031.4,25.7,0000.0,0005.09,0002.65,0002.11
2023-06-18 01:47:00,SystemResetWarning,0829.2,5.00,000.00,029.8,028.2,000.0,038.2,031.4,25.6,0000.0,0005.29,0002.69,0002.16
2023-06-18 01:48:00,SystemResetWarning,0829.2,5.00,000.00,029.8,028.3,000.0,038.3,031.5,25.2,0000.0,0006.25,0002.72,0002.19
2023-06-18 01:49:00,SystemResetWarning,0829.2,5.01,000.00,029.9,028.4,000.0,038.3,031.5,24.5,0000.0,0006.32,0002.77,0002.20
2023-06-18 01:50:00,SystemResetWarning,0829.2,4.99,000.00,029.9,028.5,000.0,038.3,031.5,23.5,0000.0,0006.41,0002.77,0002.19
2023-06-18 01:51:00,SystemResetWarning,0829.2,5.00,000.00,029.9,028.6,000.0,038.3,031.6,23.3,0000.0,0006.17,0002.78,0002.18
2023-06-18 01:52:00,SystemResetWarning,0829.2,4.99,000.00,030.0,027.7,000.0,038.3,031.6,23.8,0000.0,0006.65,0002.76,0002.20
2023-06-18 01:53:00,SystemResetWarning,0829.2,5.00,000.00,029.9,025.5,000.0,038.3,031.4,23.6,0000.0,0006.97,0002.76,0002.18
2023-06-18 01:54:00,SystemResetWarning,0829.2,5.01,000.00,029.9,025.0,000.0,038.2,031.4,24.1,0000.0,0007.13,0002.73,0002.17
2023-06-18 01:55:00,SystemResetWarning,0829.2,5.01,000.00,029.8,025.3,000.0,038.2,031.1,24.2,0000.0,0007.15,0002.75,0002.17
2023-06-18 01:56:00,SystemResetWarning,0829.1,5.00,000.00,029.7,025.8,000.0,038.2,031.0,24.5,0000.0,0006.73,0002.74,0002.14
2023-06-18 01:57:00,SystemResetWarning,0829.1,5.00,000.00,029.7,026.2,000.0,038.2,031.1,24.8,0000.0,0006.55,0002.70,0002.09
2023-06-18 01:58:00,SystemResetWarning,0829.1,5.00,000.00,029.7,026.6,000.0,038.2,031.1,24.6,0000.0,0006.52,0002.69,0002.05
2023-06-18 01:59:00,SystemResetWarning,0829.1,4.99,000.00,029.7,027.0,000.0,038.2,031.2,24.7,0000.0,0005.33,0002.63,0002.02
